{"data":{"norad_id":55395,"intl_designator":"2023-014E","name":"STARLINK-5274","alt_names":[],"object_type":"PAYLOAD","status":"ACTIVE","operator":null,"country":"US","launch_date":"2023-01-31","launch_site_code":"AFWTR","launch_vehicle":null,"mission":null,"orbit_class":"UNKNOWN","rcs_meters":null,"size_class":null,"mass_kg":null,"dimensions":null,"purposes":["comms"],"wikipedia_slug":null,"has_3d_model":false,"image_url":null,"decayed_at":null,"tle_current":{"epoch":"2026-05-25T05:23:14.062848Z","epoch_age_seconds":55986,"freshness":"FRESH","line1":"1 55395U 23014E   26145.22446832 -.00000088  00000+0  38307-6 0  9999","line2":"2 55395  69.9994 231.3086 0003177 270.5428  89.5367 14.98332143183529","mean_motion":14.98332143,"eccentricity":0.0003177,"inclination_deg":69.9994,"raan_deg":231.3086,"arg_perigee_deg":270.5428,"mean_anomaly_deg":89.5367,"bstar":3.8307e-7,"rev_number":18352,"period_min":96.106861667987,"perigee_km":569.84118972555,"apogee_km":574.25733807763,"semimajor_km":6950.1862639016,"source":"CELESTRAK","updated_at":"2026-05-25T13:38:17.772548Z"}}}